Regional Weather Roundup
Issued by NWS Little Rock, AR

Home | Current Version | Previous Version | Graphics & Text | Print | Product List | Glossary On
Versions: 1 2 3 4 5 6 7 8 9 10 11 12 13 14 15 16 17 18 19 20 21 22 23 24 25 26 27 28 29 30 31 32 33 34 35 36 37 38 39 40 41 42 43 44 45 46 47 48 49 50
000
ASUS44 KLZK 220005
RWRLZK

WEATHER ROUNDUP FOR ARKANSAS
NATIONAL WEATHER SERVICE LITTLE ROCK AR
600 PM CST FRI NOV 21 2014

NOTE: "FAIR" INDICATES FEW OR NO CLOUDS BELOW 12,000 FEET WITH NO
SIGNIFICANT WEATHER AND/OR OBSTRUCTIONS TO VISIBILITY.

ARZ001-003-010-029-220100-
NORTHWEST ARKANSAS

CITY           SKY/WX    TMP DP  RH WIND       PRES   REMARKS
FAYETTEVILLE   CLOUDY    52  50  93 S13       30.14S
6HR MIN TEMP:  51; 6HR MAX TEMP:  54; 6HR PCP: TRACE;

FORT SMITH     CLOUDY    48  45  89 E10       30.16S
6HR MIN TEMP:  47; 6HR MAX TEMP:  48; 6HR PCP: TRACE;

HARRISON       CLOUDY    42  42 100 SE12      30.19F FOG
6HR MIN TEMP:  42; 6HR MAX TEMP:  43; 6HR PCP: TRACE;

BENTONVILLE    CLOUDY    52  48  87 S8        30.15R
6HR MIN TEMP:  52; 6HR MAX TEMP:  57; 6HR PCP:  0.01;

ROGERS         CLOUDY    52  49  89 SE12      30.14S
6HR MIN TEMP:  51; 6HR MAX TEMP:  55; 6HR PCP: TRACE;

SILOAM SPGS    CLOUDY    52  45  76 SE8       30.14S
6HR MIN TEMP:  52; 6HR MAX TEMP:  55;

HIGHFILL       CLOUDY    52  49  89 S9        30.13S
6HR MIN TEMP:  52; 6HR MAX TEMP:  56; 6HR PCP: TRACE;

SPRINGDALE     CLOUDY    52  50  93 S9        30.16S
$$

ARZ004-005-016-220100-
NORTH CENTRAL ARKANSAS

CITY           SKY/WX    TMP DP  RH WIND       PRES   REMARKS
BATESVILLE     CLOUDY    43  39  87 E6        30.29R
6HR MIN TEMP:  41; 6HR MAX TEMP:  43; 6HR PCP:  0.08;

FLIPPIN        CLOUDY    41  36  81 SE6       30.25S
6HR MIN TEMP:  41; 6HR MAX TEMP:  45;

MTN HOME       CLOUDY    40  38  93 SE8       30.24R FOG
6HR MIN TEMP:  40; 6HR MAX TEMP:  44; 6HR PCP: TRACE;

$$

ARZ040-041-220100-
WEST CENTRAL ARKANSAS

CITY           SKY/WX    TMP DP  RH WIND       PRES   REMARKS
MENA           CLOUDY    59  55  88 SE8       30.17R
MOUNT IDA      LGT RAIN  53  51  93 CALM      30.18R
6HR MIN TEMP:  50; 6HR MAX TEMP:  53; 6HR PCP:  0.17;

$$

ARZ009-017-025-026-028-220100-
NORTHEAST ARKANSAS

CITY           SKY/WX    TMP DP  RH WIND       PRES   REMARKS
CORNING        MOCLDY    41  41 100 E7        30.32R FOG
JONESBORO      CLOUDY    44  42  93 NE7       30.30R
6HR MIN TEMP:  44; 6HR MAX TEMP:  47; 6HR PCP:  0.03;

NEWPORT        LGT RAIN  44  44 100 NE5       30.30F FOG
6HR MIN TEMP:  43; 6HR MAX TEMP:  45; 6HR PCP:  0.10;

WALNUT RIDGE   CLOUDY    41  36  81 NE8       30.29S
6HR MIN TEMP:  41; 6HR MAX TEMP:  43;

BLYTHEVILLE    CLOUDY    47  39  74 CALM      30.32R
6HR MIN TEMP:  45; 6HR MAX TEMP:  49; 6HR PCP: TRACE;

$$

ARZ022-023-033-042-044-220100-
CENTRAL ARKANSAS

CITY           SKY/WX    TMP DP  RH WIND       PRES   REMARKS
LITTLE ROCK    CLOUDY    49  46  90 E6        30.26S FOG
6HR MIN TEMP:  45; 6HR MAX TEMP:  49; 6HR PCP:  0.04;

N LITTLE ROCK  CLOUDY    47  47 100 E8        30.26S
6HR MIN TEMP:  43; 6HR MAX TEMP:  47;

JACKSONVILLE   CLOUDY    46  46  99 NE8       30.26S
6HR MIN TEMP:  43; 6HR MAX TEMP:  47; 6HR PCP:  0.01;

SEARCY         LGT RAIN  45  44  97 NE7       30.29F FOG
6HR MIN TEMP:  43; 6HR MAX TEMP:  45; 6HR PCP:  0.08;

HOT SPRINGS    CLOUDY    50  49  96 E10       30.23S FOG
6HR MIN TEMP:  48; 6HR MAX TEMP:  51; 6HR PCP:  0.06;

RUSSELLVILLE   CLOUDY    47  45  93 E8        30.23R
6HR MIN TEMP:  44; 6HR MAX TEMP:  47; 6HR PCP:  0.05;

CLINTON        CLOUDY    45  45 100 CALM      30.29R FOG
$$

ARZ036-220100-
EAST ARKANSAS

CITY           SKY/WX    TMP DP  RH WIND       PRES   REMARKS
WEST MEMPHIS   CLOUDY    53  42  66 E6        30.27S
6HR MIN TEMP:  50; 6HR MAX TEMP:  54;

$$

ARZ050-053-066-070-073-220100-
SOUTHWEST ARKANSAS

CITY           SKY/WX    TMP DP  RH WIND       PRES   REMARKS
ARKADELPHIA    CLOUDY    53  53 100 E5        30.23S FOG
6HR MIN TEMP:  50; 6HR MAX TEMP:  54; 6HR PCP:  0.07;

CAMDEN         CLOUDY    55  50  82 CALM      30.22S
TEXARKANA      LGT RAIN  56  55  97 SE3       30.19R
6HR MIN TEMP:  56; 6HR MAX TEMP:  58; 6HR PCP:  0.08;

EL DORADO      CLOUDY    57  53  86 NE5       30.21F
6HR MIN TEMP:  57; 6HR MAX TEMP:  61; 6HR PCP: TRACE;

DE QUEEN       CLOUDY    57  56  96 SE8       30.15R
6HR MIN TEMP:  54; 6HR MAX TEMP:  57; 6HR PCP:  0.01;

$$

ARZ056-057-069-220100-
SOUTHEAST ARKANSAS

CITY           SKY/WX    TMP DP  RH WIND       PRES   REMARKS
PINE BLUFF     CLOUDY    53  51  93 N5        30.25R FOG
6HR MIN TEMP:  53; 6HR MAX TEMP:  55; 6HR PCP: TRACE;

STUTTGART      CLOUDY    48  46  93 N7        30.27R
6HR MIN TEMP:  48; 6HR MAX TEMP:  52; 6HR PCP:  0.05;

MONTICELLO     CLOUDY    56  52  86 CALM      30.23R
6HR MIN TEMP:  56; 6HR MAX TEMP:  61;


$$





USA.gov is the U.S. government's official web portal to all federal, state and local government web resources and services.